Change the Weather History Date:

Saturday, January 26, 2013

  Actual Average Record
Temperature  
Mean Temperature 40 °F 30 °F  
Max Temperature 56 °F 46 °F 79 °F (1951)
Min Temperature 23 °F 14 °F -19 °F (1950)
Degree Days  
Heating Degree Days 25 35  
Month to date heating degree days 916 944  
Since 1 July heating degree days 3066 3257  
Cooling Degree Days 0 0  
Month to date cooling degree days 0 0  
Year to date cooling degree days 0 0  
Moisture  
Dew Point 27 °F    
Average Humidity 61    
Maximum Humidity 89    
Minimum Humidity 32    
Precipitation  
Precipitation T in 0.02 in 0.66 in (1944)
Month to date precipitation 0.01 0.23  
Year to date precipitation 0.01 0.23  
Sea Level Pressure  
Sea Level Pressure 29.89 in    
Wind  
Wind Speed 6 mph (South)    
Max Wind Speed 17 mph    
Max Gust Speed 24 mph    
Visibility 10 miles    
Events Rain    
T = Trace of Precipitation, MM = Missing Value Source: NWS Daily Summary

Daily Weather History Graph

Daily Weather History Graph

Search for Another Location

Airport or City:

Trip Planner

Search our weather history database for the weather conditions in past years. The results will help you decide how hot, cold, wet, or windy it might be!

Date:

Astronomy

Jan. 26, 2013 Rise Set
Actual Time 6:59 AM MST 5:07 PM MST
Civil Twilight 6:31 AM MST 5:35 PM MST
Nautical Twilight 5:59 AM MST 6:07 PM MST
Astronomical Twilight 5:28 AM MST 6:38 PM MST
Moon 5:03 PM MST (1/26) 6:19 AM MST (1/26)
Length of Visible Light 11h 03m
Length of Day
10h 07m
Full, 100% of the Moon is Illuminated
Jan 26
Full
Jan 26
Full
Feb 3
Last Quarter
Feb 10
New
Feb 17
First Quarter

Hourly Weather History & Observations

Time (MST) Temp. Windchill Dew Point Humidity Pressure Visibility Wind Dir Wind Speed Gust Speed Precip Events Conditions
12:53 AM 32.0 °F - 21.0 °F 64% 30.02 in 10.0 mi Calm Calm - N/A   Clear
1:53 AM 33.1 °F 26.1 °F 21.9 °F 64% 30.00 in 10.0 mi SSW 8.1 mph - N/A   Clear
2:53 AM 26.1 °F 20.5 °F 18.0 °F 71% 30.00 in 10.0 mi West 4.6 mph - N/A   Clear
3:53 AM 25.0 °F 18.1 °F 17.1 °F 72% 30.00 in 10.0 mi WNW 5.8 mph - N/A   Clear
5:53 AM 27.0 °F 23.0 °F 18.0 °F 69% 30.04 in 10.0 mi SW 3.5 mph - N/A   Clear
6:53 AM 24.1 °F 19.7 °F 16.0 °F 71% 30.06 in 10.0 mi WSW 3.5 mph - N/A   Clear
7:53 AM 28.9 °F 21.9 °F 19.0 °F 67% 30.06 in 10.0 mi SW 6.9 mph - N/A   Clear
8:53 AM 34.0 °F 31.0 °F 19.9 °F 56% 30.04 in 10.0 mi WSW 3.5 mph - N/A   Clear
9:53 AM 37.9 °F - 19.9 °F 48% 30.02 in 10.0 mi Calm Calm - N/A   Clear
10:53 AM 44.1 °F - 21.0 °F 40% 29.99 in 10.0 mi Calm Calm - N/A   Clear
11:53 AM 48.0 °F - 23.0 °F 37% 29.95 in 10.0 mi Calm Calm - N/A   Clear
12:53 PM 52.0 °F - 24.1 °F 34% 29.90 in 10.0 mi Calm Calm - N/A   Clear
1:53 PM 53.1 °F - 24.1 °F 32% 29.86 in 10.0 mi ENE 6.9 mph - N/A   Scattered Clouds
2:53 PM 54.0 °F - 25.0 °F 33% 29.85 in 10.0 mi East 11.5 mph - N/A   Clear
3:53 PM 55.0 °F - 27.0 °F 34% 29.83 in 10.0 mi East 8.1 mph - N/A   Scattered Clouds
4:53 PM 52.0 °F - 28.0 °F 40% 29.80 in 10.0 mi ENE 9.2 mph - N/A   Clear
5:53 PM 51.1 °F - 30.9 °F 46% 29.77 in 10.0 mi East 12.7 mph - N/A   Mostly Cloudy
6:53 PM 48.9 °F - 35.1 °F 59% 29.77 in 9.0 mi East 11.5 mph - 0.00 in Rain Light Rain
7:53 PM 48.9 °F - 44.1 °F 83% 29.73 in 10.0 mi SE 11.5 mph - 0.00 in   Scattered Clouds
8:53 PM 48.0 °F - 44.1 °F 86% 29.71 in 10.0 mi SE 9.2 mph - N/A   Partly Cloudy
9:53 PM 50.0 °F - 43.0 °F 77% 29.69 in 10.0 mi South 12.7 mph - N/A   Clear
10:53 PM 45.0 °F 42.6 °F 41.0 °F 86% 29.68 in 10.0 mi WSW 4.6 mph - N/A   Clear
11:53 PM 45.0 °F 43.5 °F 37.0 °F 74% 29.64 in 10.0 mi SSW 3.5 mph - N/A   Clear